Location: Edmonton
(53.5500°N, 113.5000°W)
Time: 20:49:53
(UTC-06:00)

Daily predictions for brighter satellites

Satellite Brightness Start Highest point End
(mag) Time Altitude Azimuth Time Altitude Azimuth Time Altitude Azimuth
Meteor 1-11 4.3 18:51:59 10° NNW 18:57:50 87° ENE 19:03:35 10° SSE
Timation 2 Rocket 4.4 18:51:22 10° SW 18:57:56 77° NW 19:04:49 10° NNE
Cosmos 2366 rocket 4.1 18:52:49 10° SSE 18:58:47 52° E 19:04:44 10° NNE
Meteor 1-16 Rocket 4.1 18:55:48 10° S 19:01:03 66° E 19:06:26 10° NNE
Cosmos 2219 Rocket 2.6 18:56:23 10° NNW 19:01:42 42° NE 19:07:02 10° ESE
Meteor 1-28 Rocket 3.6 19:00:41 10° NNE 19:04:21 43° E 19:07:58 10° S
Cosmos 1726 4.0 19:04:03 10° E 19:05:11 11° E 19:06:19 10° ENE
Cosmos 1805 Rocket 4.5 19:01:54 10° N 19:05:40 27° ENE 19:09:25 10° SE
ALOS 2.7 19:02:43 10° SE 19:07:03 39° ENE 19:11:25 10° N
Meteor 2-21 4.5 19:03:27 10° S 19:09:31 89° E 19:15:36 10° NNE
Lacrosse 5 rocket 1.6 19:05:30 10° WSW 19:09:59 70° NNW 19:14:14 10° ENE
Cosmos 1484 Rocket 3.4 19:06:59 10° S 19:10:39 59° W 19:14:20 10° NNW
RESURS DK-1 3.1 19:06:36 10° NW 19:10:42 59° WSW 19:14:44 10° SSE
SL-8 Rocket 4.0 19:05:10 10° S 19:11:22 80° E 19:17:40 10° NNE
Cosmos 1703 3.2 19:07:43 10° N 19:11:42 76° E 19:15:36 10° SSE
USA 234 3.5 19:05:45 10° E 19:12:14 67° N 19:18:45 10° W
Iridium 4 Rocket 4.5 19:07:19 10° SE 19:12:16 31° ENE 19:17:23 10° NNE
Cosmos 2151 2.9 19:09:06 10° N 19:13:25 77° ENE 19:17:41 10° SSE
SJ-6B 4.2 19:12:26 10° ESE 19:15:04 19° ENE 19:17:43 10° NNE
MONITOR-E 4.1 19:14:18 10° SSE 19:17:20 60° ENE 19:20:24 10° N
SL-16 R/B 4.4 19:14:11 10° NW 19:19:05 30° WSW 19:23:57 10° SSW
Cosmos-2242 3.3 19:16:00 10° SSW 19:20:15 71° WNW 19:24:32 10° N
Cosmos 1633 Rocket 4.2 19:17:35 10° NNE 19:21:07 23° ENE 19:24:39 10° ESE
YAOGAN 1 2.8 19:18:05 10° S 19:22:24 76° WSW 19:26:46 10° NNW
METEOR-M 4.1 19:18:59 10° SSE 19:24:20 83° ENE 19:29:43 10° NNW
Cosmos 2333 4.2 19:19:24 10° NNW 19:25:08 76° NE 19:30:54 10° SE
Abrixas rocket 3.4 19:22:16 10° WSW 19:25:14 32° S 19:27:51 12° ESE
Cosmos 2058 3.0 19:21:19 10° NNW 19:25:32 83° W 19:29:41 10° S
NOAA 12 4.1 19:20:34 10° SSE 19:25:48 63° ENE 19:31:06 10° N
GRACE-2 4.2 19:24:04 10° SSE 19:26:28 36° E 19:28:53 10° NNE
Cosmos 1908 3.8 19:23:36 10° SSE 19:27:09 34° E 19:30:43 10° NNE
Cosmos 864 Rocket 4.5 19:20:58 10° S 19:27:16 77° E 19:33:34 10° NNE
Cosmos 2237 4.5 19:23:02 10° NW 19:28:47 75° WSW 19:34:29 10° SSE
Cosmos 1626 3.0 19:26:36 10° NNW 19:30:16 53° W 19:33:55 10° S
Gbstr 26 Del rocket 4.2 19:25:58 10° W 19:30:29 50° SSW 19:36:05 10° SE
GRACE-1 4.0 19:28:02 10° SSE 19:30:31 43° E 19:33:01 10° NNE
Aureole 1 Rocket 3.4 19:25:08 10° SSW 19:30:57 85° WNW 19:35:18 10° NNE
Cosmos 1420 Rocket 4.2 19:26:22 10° NNW 19:31:43 82° WSW 19:37:01 10° SSE
Cosmos 1821 Rocket 4.5 19:29:41 10° SSE 19:35:14 36° E 19:40:54 10° NNE
Cosmos 1400 Rocket 4.0 19:31:40 10° NNW 19:35:36 47° W 19:39:26 10° S
Cosmos 2237 Rocket 2.6 19:30:35 10° NNW 19:36:03 43° NE 19:41:05 12° ESE
H-2A R/B 3.4 19:33:08 10° SE 19:36:42 35° ENE 19:40:18 10° N
Cosmos 44 4.3 19:33:53 10° SSE 19:37:05 20° ESE 19:38:39 17° E
APEX 4.3 19:35:46 10° SSE 19:37:16 15° ESE 19:37:16 15° ESE
GP-B 3.2 19:33:42 10° N 19:38:10 81° W 19:42:36 10° S
Cosmos 2218 Rocket 4.1 19:33:28 10° SSW 19:39:37 80° W 19:45:49 10° N
Cosmos 1727 Rocket 4.4 19:35:07 10° NNW 19:41:28 71° W 19:47:46 10° S
Envisat 4.1 19:38:47 15° E 19:41:32 24° ENE 19:45:31 10° N
Cosmos 1461 3.4 19:37:30 10° WSW 19:41:35 58° NW 19:45:54 10° NE
SKYMED 2 3.6 19:37:22 10° NNE 19:41:41 60° ESE 19:45:59 10° S
Thor Agena Rocket 4.2 19:39:02 10° NE 19:43:30 29° E 19:47:54 10° SSE
SL-16 R/B 3.2 19:42:04 10° NNW 19:47:03 30° NE 19:50:09 19° E
Lacrosse 4 Rocket 3.9 19:45:40 10° NW 19:47:55 14° NNW 19:50:08 10° NNE
Cosmos 2221 2.6 19:48:02 10° S 19:52:14 53° E 19:56:31 10° NNE
Cosmos 921 Rocket 4.2 19:48:16 10° NNW 19:52:35 47° WSW 19:56:48 10° S
FREGAT/IRIS 2.7 19:51:44 12° SE 19:54:18 49° ENE 19:57:14 10° N
Cosmos 1892 4.2 19:51:45 10° NNE 19:54:08 18° NE 19:54:08 18° NE
Cosmos 2084 3.1 19:52:36 10° NW 19:56:25 84° SW 19:59:13 18° SE
Cosmos 1300 4.0 19:53:23 10° SE 19:58:36 16° NE 19:59:45 10° NNE
Cosmos 2360 Rocket 3.9 19:52:36 10° NW 19:57:41 35° WSW 20:02:45 10° S
Cosmos 2123 Rocket 4.1 19:51:42 10° N 19:57:49 53° ENE 20:03:55 10° SSE
CZ-4 R/B 3.9 19:55:06 10° SSW 19:58:38 26° W 20:02:09 10° NW
HJ-1C 3.8 19:57:16 22° SE 19:58:59 40° ENE 20:02:15 10° N
Cosmos 1842 Rocket 3.9 19:54:51 10° SSW 19:59:18 68° WNW 20:03:44 10° N
CZ-2D R/B 4.1 19:58:21 26° E 19:59:30 31° ENE 20:02:58 10° N
Cosmos 1980 3.7 19:54:29 10° NNW 20:00:07 61° NE 20:04:40 16° SE
Cosmos 1331 Rocket 4.0 19:56:27 10° NNW 20:01:40 58° ENE 20:05:54 15° SE
BREEZE M DEB (TANK) 3.3 19:58:34 10° W 20:03:30 35° SSW 20:04:56 20° SSE
COSMOS 2428 3.3 19:59:42 10° NW 20:05:17 60° WSW 20:10:52 10° SSE
Cosmos 44 Rocket 3.8 20:01:08 10° S 20:05:22 34° ESE 20:06:58 27° E
Cosmos 2082 Rocket 4.3 20:03:48 10° WNW 20:08:00 20° NNW 20:12:13 10° NNE
Cosmos 2333 Rocket 2.2 20:02:43 10° NNW 20:08:29 88° NE 20:14:16 10° SSE
ATLAS 5 CENTAUR R/B 3.4 20:04:31 10° WNW 20:09:09 30° N 20:12:33 17° NE
Cosmos 1605 Rocket 4.5 20:04:11 10° SSE 20:09:35 34° E 20:15:00 10° NNE
Cosmos 1470 Rocket 4.2 20:08:58 10° N 20:13:07 35° ENE 20:14:03 32° E
Cosmos 1833 4.3 20:10:23 10° SW 20:16:04 80° WNW 20:21:43 10° NNE
DMSP B5D1-3 4.4 20:11:35 10° NNE 20:16:45 77° ESE 20:21:54 10° S
EO 1 Del DPAF 4.1 20:13:09 10° N 20:16:55 52° WNW 20:20:40 10° SW
Cosmos 2219 3.4 20:12:26 10° S 20:17:55 47° ESE 20:23:17 10° NE
Cosmos 1939 Rocket 4.2 20:20:54 24° NE 20:20:54 24° NE 20:23:37 10° N
Cosmos 1269 Rocket 4.0 20:17:14 10° S 20:22:23 57° ESE 20:27:35 10° NNE
Aureole 2 Rocket 3.4 20:19:26 10° NW 20:23:11 54° WSW 20:27:06 10° S
FENGYUN 3A 4.3 20:18:54 10° S 20:24:12 57° W 20:29:34 10° NNW
CZ-4C R/B 2.6 20:20:01 10° S 20:25:02 42° ESE 20:27:07 31° ENE
Resurs 01 Rocket 1.9 20:25:08 39° ESE 20:26:06 46° ENE 20:30:21 10° N
Cosmos 1302 Rocket 4.0 20:24:15 10° NNW 20:29:25 58° ENE 20:31:23 36° ESE
COSMO-SKYMED 1 3.4 20:25:31 10° N 20:29:45 52° WNW 20:33:58 10° SW
Cosmos 468 4.5 20:24:42 10° SSW 20:29:55 88° WNW 20:35:13 10° NNE
Sich 1 3.1 20:27:38 10° NNW 20:32:01 78° W 20:36:24 10° S
NOSS 0 Rocket 4.1 20:27:02 10° NW 20:33:12 73° WSW 20:38:44 13° SSE
Resurs 1-3 3.7 20:33:25 47° E 20:34:03 51° ENE 20:38:19 10° N
FengYun 1-2 T 4.4 20:31:24 10° S 20:36:52 70° WSW 20:42:22 10° NNW
Cosmos 1726 2.1 20:36:12 10° SSW 20:39:53 80° WNW 20:43:36 10° N
Cosmos 2098 Rocket 3.8 20:38:34 10° SSW 20:43:30 77° WNW 20:49:50 10° N
ALOS 4.0 20:40:19 10° SSW 20:44:34 34° W 20:48:51 10° NNW
Spot 2 Rocket 3.4 20:43:43 44° SE 20:45:07 62° ENE 20:50:09 10° N
Cosmos 2219 Rocket 3.1 20:40:26 10° NW 20:45:47 48° WSW 20:51:08 10° S
Meteor 2-10 3.8 20:41:16 10° S 20:46:16 72° E 20:51:27 10° NNE
USA 32 3.9 20:41:43 10° N 20:46:59 69° E 20:49:11 35° SSE
Cosmos 1110 Rocket 4.4 20:43:05 10° NNW 20:48:22 62° WSW 20:52:31 16° S
SJ-6B 3.3 20:47:02 20° S 20:49:26 54° W 20:53:07 10° NNW
Lacrosse 5 rocket 1.7 20:45:19 10° WNW 20:49:36 53° N 20:50:02 50° NNE
Cosmos 1535 Rocket 4.4 20:43:35 10° SSW 20:49:42 84° W 20:55:52 10° N
Iridium 4 Rocket 4.5 20:46:21 10° SSW 20:51:57 56° W 20:57:48 10° N
Cosmos 1666 Rocket 4.3 20:48:36 10° NNW 20:52:51 51° W 20:57:01 10° S
USA 234 3.2 20:52:34 41° ESE 20:55:06 83° NNE 21:01:42 10° WNW
H-2A R/B 3.8 20:56:43 18° NE 20:56:43 18° NE 20:59:20 10° N
BREEZE-M DEB (TANK) 3.8 20:48:23 10° W 20:56:05 36° SSW 20:56:57 33° S
Cosmos 1633 Rocket 3.8 20:54:56 10° NNW 20:59:15 53° W 21:02:57 14° S
Cosmos 1933 Rocket 3.4 20:56:26 10° N 21:00:32 75° NNE 21:00:32 75° NNE
Abrixas rocket 4.2 20:58:33 10° WSW 21:00:22 23° SW 21:00:22 23° SW
MOS 1-B Rocket 4.1 21:03:20 18° S 21:07:40 73° WSW 21:14:06 10° NNW
Geosat 4.1 21:09:57 59° NE 21:09:57 59° NE 21:14:49 10° NNW
Cosmos 44 3.4 21:13:29 10° SW 21:17:06 59° WSW 21:17:06 59° WSW
Envisat 3.1 21:19:00 53° SSW 21:20:07 72° WSW 21:25:14 10° NNW
Cosmos 2237 Rocket 3.0 21:14:46 10° NW 21:20:14 47° WSW 21:22:57 27° S
Cosmos 1934 Rocket 4.5 21:15:46 10° SSW 21:22:04 62° WNW 21:28:23 10° N
Thor Agena Rocket 4.3 21:18:06 10° N 21:23:04 52° WNW 21:27:58 10° SW
Cosmos 1943 4.3 21:20:25 10° NNW 21:24:52 31° NNE 21:24:52 31° NNE
Lacrosse 4 Rocket 3.9 21:26:18 10° NNW 21:28:05 13° N 21:28:05 13° N
Cosmos 1892 4.3 21:26:53 10° NNW 21:29:11 32° NW 21:29:11 32° NW
SL-16 R/B 2.1 21:26:05 10° NNW 21:31:48 79° WSW 21:32:02 77° SSW
Cosmos 1603 4.2 21:26:24 10° NNW 21:31:09 46° NNE 21:31:09 46° NNE
Cosmos 2227 Rocket 4.3 21:28:00 10° SSW 21:28:43 14° SSW 21:28:43 14° SSW
ERS-1 Rocket 4.3 21:36:06 30° NNE 21:36:06 30° NNE 21:38:51 10° N
Meteor 2-3 Rocket 4.2 21:32:32 10° NNW 21:38:12 58° W 21:39:56 42° SSW
Terra 4.4 21:48:09 11° NNE 21:48:09 11° NNE 21:48:26 10° N
Cosmos 44 Rocket 4.2 21:42:09 10° WSW 21:45:44 44° W 21:45:44 44° W
Cosmos 2333 Rocket 4.4 21:47:57 10° NW 21:52:04 21° W 21:56:11 10° SSW
ATLAS 5 CENTAUR R/B 3.0 21:49:38 10° NW 21:54:06 44° N 21:54:06 44° N
Cosmos 2219 4.2 21:56:42 10° WSW 22:02:10 43° NW 22:05:15 24° NNE
Resurs 01 Rocket 3.5 22:02:43 26° W 22:02:48 26° W 22:06:32 10° NW
CZ-4C R/B 2.9 22:07:50 10° WSW 22:12:22 53° WNW 22:12:22 53° WNW
Lacrosse 5 rocket 4.2 22:24:51 10° WNW 22:25:43 16° WNW 22:25:43 16° WNW
H-2A R/B 3.9 22:37:22 26° NNW 22:37:22 26° NNW 22:39:42 10° NNW
USA 234 4.0 22:39:55 44° WSW 22:39:55 44° WSW 22:44:50 10° WNW
